Tulsa Jones, OK

1:06 AM CDT on May 28, 2017 (GMT -0500)
Jones Jr.

Weather History for KRVS - October, 2012

Change the Weather History Date:

Sunday, October 28, 2012

  Actual Average (KTUL) Record (KTUL)
Temperature  
Mean Temperature 42 °F -  
Max Temperature 59 °F 68 °F 86 °F (1922)
Min Temperature 28 °F 46 °F 23 °F (1925)
Degree Days  
Heating Degree Days 22    
Moisture  
Dew Point 27 °F    
Average Humidity 62    
Maximum Humidity 89    
Minimum Humidity 25    
Precipitation  
Precipitation 0.00 in - - ()
Sea Level Pressure  
Sea Level Pressure 30.30 in    
Wind  
Wind Speed 1 mph (NE)    
Max Wind Speed 8 mph    
Max Gust Speed -    
Visibility 10 miles    
Events      
Averages and records for this station are not official NWS values.
T = Trace of Precipitation, MM = Missing Value Source: NWS Daily Summary

Daily Weather History Graph

Daily Weather History Graph

Search for Another Location

Airport or City:

Trip Planner

Search our weather history database for the weather conditions in past years. The results will help you decide how hot, cold, wet, or windy it might be!

Date:

Astronomy

Oct. 28, 2012 Rise Set
Actual Time 7:43 AM CDT 6:31 PM CDT
Civil Twilight 7:16 AM CDT 6:58 PM CDT
Nautical Twilight 6:46 AM CDT 7:28 PM CDT
Astronomical Twilight 6:16 AM CDT 7:57 PM CDT
Moon 5:49 PM CDT 6:38 AM CDT
Length of Visible Light 11h 41m
Length of Day
10h 48m
Waxing Gibbous, 99% of the Moon is Illuminated
Oct 28
Waxing Gibbous
Oct 29
Full
Nov 6
Last Quarter
Nov 13
New
Nov 20
First Quarter

Hourly Weather History & Observations

Time (CDT) Temp. Windchill Dew Point Humidity Pressure Visibility Wind Dir Wind Speed Gust Speed Precip Events Conditions
12:53 AM 33.1 °F - 27.0 °F 78% 30.32 in 10.0 mi Calm Calm - N/A   Clear
1:53 AM 34.0 °F - 27.0 °F 75% 30.31 in 10.0 mi Calm Calm - N/A   Clear
2:53 AM 32.0 °F - 27.0 °F 82% 30.30 in 10.0 mi Calm Calm - N/A   Clear
3:53 AM 32.0 °F - 28.0 °F 85% 30.30 in 10.0 mi Calm Calm - N/A   Clear
4:53 AM 30.0 °F - 26.1 °F 85% 30.31 in 10.0 mi Calm Calm - N/A   Clear
5:53 AM 28.9 °F - 26.1 °F 89% 30.32 in 8.0 mi Calm Calm - N/A   Clear
6:53 AM 28.9 °F - 26.1 °F 89% 30.33 in 7.0 mi Calm Calm - N/A   Clear
7:53 AM 28.0 °F - 25.0 °F 88% 30.35 in 6.0 mi Calm Calm - N/A   Clear
8:53 AM 36.0 °F 30.3 °F 30.0 °F 79% 30.36 in 9.0 mi NNE 6.9 mph - N/A   Clear
9:53 AM 42.1 °F 38.4 °F 30.9 °F 65% 30.36 in 10.0 mi NNE 5.8 mph - N/A   Clear
10:53 AM 46.9 °F - 30.0 °F 52% 30.35 in 10.0 mi NNE 5.8 mph - N/A   Clear
12:53 PM 53.1 °F - 28.0 °F 38% 30.34 in 10.0 mi ENE 8.1 mph - N/A   Clear
1:53 PM 55.0 °F - 27.0 °F 34% 30.31 in 10.0 mi ENE 4.6 mph - N/A   Clear
2:53 PM 57.0 °F - 23.0 °F 27% 30.28 in 10.0 mi Calm Calm - N/A   Clear
3:53 PM 57.0 °F - 21.9 °F 26% 30.26 in 10.0 mi SSE 4.6 mph - N/A   Clear
4:53 PM 57.9 °F - 21.9 °F 25% 30.25 in 10.0 mi Calm Calm - N/A   Clear
5:53 PM 55.9 °F - 24.1 °F 29% 30.25 in 10.0 mi NE 4.6 mph - N/A   Clear
6:53 PM 48.0 °F - 28.0 °F 46% 30.25 in 10.0 mi Calm Calm - N/A   Clear
7:53 PM 43.0 °F - 28.9 °F 58% 30.27 in 10.0 mi Calm Calm - N/A   Clear
8:53 PM 42.1 °F - 30.0 °F 62% 30.27 in 10.0 mi Calm Calm - N/A   Clear
9:53 PM 39.9 °F 37.8 °F 28.9 °F 65% 30.29 in 10.0 mi West 3.5 mph - N/A   Clear
10:53 PM 39.0 °F - 30.0 °F 70% 30.29 in 10.0 mi Calm Calm - N/A   Clear
11:53 PM 37.0 °F - 30.0 °F 76% 30.30 in 10.0 mi Calm Calm - N/A   Clear